Preview of NWS' New Version of Forecast
This preview is not operational and should not be used for support decisions.
Latest weather observations around

Nashville, Nashville International Airport (KBNA)

Using English Units (Switch to International System of Units)
Date/ Time (CDT) Wind (mph) Vis. (mi) Weather Sky Cond. Temp (°F) Rel. Humidity Wind Chill (°F) Heat Index (°F) Pressure Precip. (in)
Air Dwpt 6 hour Altimeter (inHg) Sea level (inHg) 1 hr 3 hr 6 hr
Max Min
Sep 23 14:53 SW 5 10 Mostly Cloudy SCT065 BKN075 84 68     59%   87 30.02 30      
Sep 23 13:53 WSW 9 10 Mostly Cloudy FEW024 SCT045 BKN065 BKN250 84 69     61%   88 30.04 30.02      
Sep 23 12:53 WSW 6 10 Mostly Cloudy FEW029 SCT060 BKN090 BKN250 82 70     67%   86 30.06 30.03     0
Sep 23 11:53 SSW 5 10 Cloudy FEW033 SCT044 BKN065 OVC140 74 69     85%   75 30.07 30.05 0    
Sep 23 10:53 W 6 10 Cloudy SCT041 BKN050 BKN075 OVC130 81 62     53%   82 30.07 30.05      
Sep 23 09:53 SSW 7 10 Mostly Cloudy FEW050 SCT075 BKN100 81 60     49%   82 30.07 30.05      
Sep 23 08:53 S 6 10 Cloudy BKN050 OVC065 76 59     56%   76 30.08 30.06      
Sep 23 07:53 S 6 10 Cloudy BKN050 OVC065 75 58     55%   75 30.07 30.05      
Sep 23 06:53 S 6 10 Mostly Cloudy SCT050 BKN060 74 58     57%   74 30.07 30.05      
Sep 23 05:53 S 5 10 Mostly Cloudy BKN060 72 59     64%   72 30.06 30.04      
Sep 23 04:53 S 5 10 Cloudy OVC065 70 60     71%     30.05 30.03      
Sep 23 03:53 SSE 3 10 Mostly Cloudy BKN060 70 59     68%     30.06 30.04      
Sep 23 02:53 S 5 10 Mostly Cloudy BKN070 69 58     68%     30.06 30.03      
Sep 23 01:53 Calm 10 Clear CLR 71 58     63%   71 30.07 30.04      
Sep 23 00:53 SSW 7 10 Clear CLR 75 57     54%   75 30.06 30.04      
Sep 22 23:53 SSW 5 10 Clear CLR 73 57     57%   73 30.08 30.05      
Sep 22 22:53 S 5 10 Mostly Clear FEW075 73 57     57%   73 30.08 30.05      
Sep 22 21:53 S 5 10 Mostly Clear FEW075 74 57     56%   74 30.08 30.06      
Sep 22 20:53 S 3 10 Mostly Clear FEW075 77 56     48%   77 30.07 30.05      
Sep 22 19:53 S 6 10 Clear   79 56     45%   79 30.06 30.04      
Sep 22 18:53 SW 5 10 Mostly Clear FEW075 81 54     39%   81 30.06 30.04      
Sep 22 17:53 SSW 10 10 Mostly Clear FEW075 87 54     32%   85 30.06 30.04      
Sep 22 16:53 SSW 14 10 Mostly Clear FEW075 90 53     29%   88 30.06 30.03      
Sep 22 15:53 SW 5 10 Mostly Clear FEW075 91 53     28%   89 30.06 30.04      
Sep 22 14:53 SW 10 10 Mostly Clear FEW075 91 53     28%   89 30.08 30.05      
Sep 22 13:53 SW 9 10 Mostly Clear FEW065 FEW070 90 53     29%   88 30.1 30.08      
Sep 22 12:53 WSW 9 10 Partly Cloudy SCT070 88 54     31%   86 30.13 30.11      
Sep 22 11:53 WSW 10 10 Partly Cloudy SCT070 SCT250 87 54     32%   85 30.16 30.14      
Sep 22 10:53 SSW 11 10 Partly Cloudy FEW070 SCT250 86 54     33%   84 30.18 30.15      
Sep 22 09:53 SW 8 10 Mostly Clear FEW250 85 56     37%   84 30.19 30.17      
Sep 22 08:53 S 9 10 Mostly Clear FEW200 FEW250 79 58     49%   79 30.19 30.17      
Sep 22 07:53 S 6 10 Mostly Clear FEW065 FEW250 68 58     70%     30.19 30.17      
Sep 22 06:53 Calm 10 Mostly Cloudy BKN065 65 56     73%     30.19 30.17      
Sep 22 05:53 Calm 10 Mostly Clear FEW065 FEW250 65 55     70%     30.18 30.16      
Sep 22 04:53 Calm 10 Mostly Clear FEW250 67 56     68%     30.17 30.15      
Sep 22 03:53 SSE 5 10 Mostly Clear FEW250 65 55     70%     30.16 30.14      
Sep 22 02:53 SSE 5 10 Mostly Clear FEW250 66 55     68%     30.16 30.14      
Sep 22 01:53 SSE 6 10 Mostly Clear FEW250 68 55     63%     30.16 30.14      
Sep 22 00:53 SSE 6 10 Clear CLR 69 55     61%     30.17 30.15      
Sep 21 23:53 S 5 10 Mostly Clear FEW250 69 55     61%     30.17 30.15      
Sep 21 22:53 S 5 10 Mostly Clear FEW250 71 56     59%   71 30.18 30.16      
Sep 21 21:53 S 5 10 Mostly Clear FEW250 74 55     52%   73 30.17 30.15      
Sep 21 20:53 SSE 5 10 Mostly Clear FEW250 76 55     48%   75 30.17 30.15      
Sep 21 19:53 SSE 3 10 Mostly Clear FEW250 79 54     42%   79 30.17 30.15      
Sep 21 18:53 S 3 10 Mostly Clear FEW250 82 52     35%   81 30.16 30.14      
Sep 21 17:53 S 9 10 Mostly Clear FEW250 87 51     29%   85 30.16 30.14      
Sep 21 16:53 S 10 10 Mostly Clear FEW250 90 49     25%   87 30.16 30.14      
Sep 21 15:53 7 10 Mostly Clear FEW250 90 49     25%   87 30.16 30.14      
Sep 21 14:53 6 10 Mostly Clear FEW250 92 51     25%   89 30.18 30.16      
Sep 21 13:53 S 8 10 Partly Cloudy SCT250 91 52     27%   88 30.21 30.19      
Sep 21 12:53 5 10 Partly Cloudy SCT250 89 52     28%   87 30.24 30.22      
Sep 21 11:53 WSW 9 10 Mostly Cloudy BKN250 87 53     31%   85 30.27 30.25      
Sep 21 10:53 S 10 10 Mostly Cloudy BKN250 84 53     35%   83 30.29 30.27      
Sep 21 09:53 S 8 10 Mostly Cloudy BKN250 81 53     38%   80 30.3 30.28      
Sep 21 08:53 S 9 10 Mostly Cloudy BKN250 76 54     47%   75 30.3 30.28      
Sep 21 07:53 S 7 10 Partly Cloudy SCT250 71 57     61%   71 30.29 30.27      
Sep 21 06:53 S 5 10 Partly Cloudy SCT250 66 57     73%     30.27 30.25      
Sep 21 05:53 S 6 10 Clear CLR 67 57     71%     30.27 30.24      
Sep 21 04:53 Calm 10 Clear CLR 68 57     68%     30.26 30.24      
Sep 21 03:53 SSE 5 10 Clear CLR 69 57     65%     30.25 30.22      
Sep 21 02:53 S 5 10 Mostly Clear FEW250 71 57     61%   71 30.23 30.21      
Sep 21 01:53 S 3 10 Partly Cloudy SCT250 72 58     61%   72 30.23 30.2      
Sep 21 00:53 S 3 10 Partly Cloudy SCT250 72 60     66%   72 30.22 30.2      
Sep 20 23:53 SSW 3 10 Partly Cloudy SCT250 73 61     66%   73 30.22 30.2      
Sep 20 22:53 S 6 10 Mostly Cloudy BKN250 73 61     66%   73 30.22 30.2      
Sep 20 21:53 S 5 10 Mostly Clear FEW250 75 60     60%   75 30.22 30.2      
Sep 20 20:53 S 3 10 Partly Cloudy SCT250 78 60     54%   78 30.21 30.19      
Sep 20 19:53 SSE 5 10 Mostly Clear FEW250 80 58     47%   80 30.19 30.17      
Sep 20 18:53 SSE 6 10 Clear   82 58     44%   82 30.17 30.15      
Sep 20 17:53 SSE 8 10 Mostly Clear FEW250 86 58     39%   85 30.17 30.14      
Sep 20 16:53 SSW 7 10 Clear   88 59     38%   87 30.17 30.15      
Sep 20 15:53 SSE 10 10 Mostly Cloudy SCT065 BKN080 BKN250 87 57     36%   86 30.18 30.16      
Sep 20 14:53 S 7 10 Mostly Cloudy SCT065 BKN250 88 56     34%   86 30.19 30.17      
Sep 20 13:53 W 6 10 Mostly Cloudy SCT065 SCT080 BKN250 85 55     36%   84 30.21 30.18      
Sep 20 12:53 S 9 10 Mostly Cloudy FEW055 FEW065 BKN250 86 54     33%   84 30.22 30.2      
Sep 20 10:53   10 Partly Cloudy FEW055 SCT250 81 53     38%   80 30.25 30.23      
May 13 11:53 7 10 Clear   89 61     39%   89 30.11 30.09      
May 12 13:53 6 10 Mostly Cloudy SCT055 BKN065 BKN250 89 58     35%   88 30.1 30.08      
May 11 23:53 S 3 10 Mostly Clear FEW250 73 58     59%   73 30.06 30.03      
May 11 16:53 WSW 11 10 Partly Cloudy SCT070 SCT250 88        %     30.02 30      
May 11 15:53 SW 11 10 Partly Cloudy SCT065 SCT250 88 60     39%   88 30.03 30.01      
Jun 11 21:53 S 3 10 Partly Cloudy FEW055 SCT250 77 67     71%   78 30.08 30.06      
Jun 10 10:53 SSW 10 10 Mostly Cloudy BKN050 81 58     45%   81 30.08 30.06      
Jun 10 00:53 SSE 3 10 Clear CLR 64 59     84%     30 29.98      
Jun 09 15:53 E 7 10 Mostly Clear FEW050 81 52     37%   80 29.96 29.94      
Jun 07 22:53 NNE 9 10 Clear CLR 64 54     70%     29.98 29.96      
Jun 07 08:53 NE 9 10 Clear CLR 71 55     57%   71 29.96 29.94      
Jun 06 12:53 6 10 Mostly Cloudy SCT023 BKN035 BKN250 83 69     63%   87 29.84 29.82      
Notice The following observation data may not be complete
Jun 06 07:03   0.25 Fog VV002          %              
Jun 06 01:53 Calm 10 Mostly Cloudy BKN200 69 67     93%     29.83 29.81      
Notice The following observation data may not be complete
Jun 05 16:04   10 Cloudy SCT013 BKN090 BKN130 OVC250          %